{"data":{"norad_id":69792,"epoch":"2026-09-19T23:16:44.126688Z","epoch_age_seconds":72456,"freshness":"FRESH","line1":"1 69792U 26152A   26262.96995517  .01342099  92320-3  23192-2 0  9994","line2":"2 69792  20.5826 164.3612 0002787   7.2634 352.7859 16.01198011 12423","mean_motion":16.01198011,"eccentricity":0.0002787,"inclination_deg":20.5826,"raan_deg":164.3612,"arg_perigee_deg":7.2634,"mean_anomaly_deg":352.7859,"bstar":0.0023192,"rev_number":1242,"period_min":89.932662300815,"perigee_km":269.24686508804,"apogee_km":272.95314979599,"semimajor_km":6649.237007442,"source":"CELESTRAK","updated_at":"2026-09-20T09:00:25.116609Z"}}